North Bennington, VT

5:04 PM EST on February 26, 2017 (GMT -0500)
Morse State

Weather History for KDDH - February, 2015

Change the Weather History Date:

Sunday, February 8, 2015

  Actual Average Record
Temperature  
Mean Temperature 22 °F 24 °F  
Max Temperature 29 °F 33 °F 44 °F (2017)
Min Temperature 15 °F 14 °F 3 °F (2014)
Degree Days  
Heating Degree Days 43 41  
Month to date heating degree days 420 337  
Since 1 July heating degree days 4400 4468  
Cooling Degree Days 0 0  
Month to date cooling degree days 0 0  
Year to date cooling degree days 0 0  
Moisture  
Dew Point 16 °F    
Average Humidity 80    
Maximum Humidity 91    
Minimum Humidity 68    
Precipitation  
Precipitation 0.20 in 0.07 in 0.21 in (2017)
Month to date precipitation 0.62 0.53  
Year to date precipitation 3.02 3.28  
Sea Level Pressure  
Sea Level Pressure 29.94 in    
Wind  
Wind Speed 7 mph (ENE)    
Max Wind Speed 17 mph    
Max Gust Speed 26 mph    
Visibility 4 miles    
Events Snow    
T = Trace of Precipitation, MM = Missing Value Source: NWS Daily Summary

Daily Weather History Graph

Daily Weather History Graph

Search for Another Location

Airport or City:

Trip Planner

Search our weather history database for the weather conditions in past years. The results will help you decide how hot, cold, wet, or windy it might be!

Date:

Astronomy

Feb. 08, 2015 Rise Set
Actual Time 6:59 AM EST 5:14 PM EST
Civil Twilight 6:30 AM EST 5:44 PM EST
Nautical Twilight 5:56 AM EST 6:18 PM EST
Astronomical Twilight 5:23 AM EST 6:51 PM EST
Moon 9:58 PM EST (2/8) 8:58 AM EST (2/8)
Length of Visible Light 11h 14m
Length of Day
10h 14m
Waning Gibbous, 81% of the Moon is Illuminated
Feb 8
Waning Gibbous
Feb 11
Last Quarter
Feb 18
New
Feb 25
First Quarter
Mar 5
Full

Hourly Weather History & Observations

Time (EST) Temp. Windchill Dew Point Humidity Pressure Visibility Wind Dir Wind Speed Gust Speed Precip Events Conditions
12:04 AM 23.0 °F - 21.0 °F 92% 29.97 in 2.5 mi Calm Calm - N/A   Overcast
12:25 AM 23.0 °F - 21.0 °F 92% 29.97 in 1.5 mi Calm Calm - 0.00 in Snow Light Snow
12:32 AM 23.0 °F - 21.0 °F 92% 29.97 in 1.2 mi Calm Calm - 0.00 in Snow Light Snow
12:54 AM 24.1 °F - 21.0 °F 88% 29.99 in 1.0 mi Calm Calm - 0.01 in Snow Light Snow
1:39 AM 21.0 °F 13.4 °F 18.0 °F 88% 29.95 in 1.0 mi North 5.8 mph - 0.02 in Snow Light Snow
1:47 AM 21.0 °F 14.6 °F 18.0 °F 88% 29.95 in 0.8 mi NNE 4.6 mph - 0.03 in Snow Light Snow
1:54 AM 19.9 °F 12.1 °F 18.0 °F 92% 29.98 in 0.8 mi North 5.8 mph - 0.03 in Snow Light Snow
1:58 AM 19.9 °F 13.4 °F 17.1 °F 89% 29.94 in 1.0 mi North 4.6 mph - 0.00 in Snow Light Snow
2:54 AM 19.0 °F 13.9 °F 16.0 °F 88% 29.97 in 1.0 mi North 3.5 mph - 0.02 in Snow Light Snow
3:21 AM 18.0 °F 9.8 °F 15.1 °F 88% 29.95 in 1.8 mi North 5.8 mph - 0.01 in Snow Light Snow
3:54 AM 17.1 °F - 14.0 °F 88% 29.98 in 1.2 mi Calm Calm - 0.02 in Snow Light Snow
4:09 AM 16.0 °F - 12.9 °F 88% 29.94 in 2.5 mi Calm Calm - 0.01 in Snow Light Snow
4:24 AM 16.0 °F - 12.9 °F 88% 29.94 in 3.0 mi Calm Calm - 0.01 in Snow Light Snow
4:36 AM 16.0 °F - 12.9 °F 88% 29.93 in 2.5 mi Calm Calm - 0.01 in Snow Light Snow
4:46 AM 16.0 °F - 12.9 °F 88% 29.93 in 4.0 mi Calm Calm - 0.01 in Snow Light Snow
4:54 AM 16.0 °F 10.4 °F 12.9 °F 88% 29.98 in 5.0 mi NW 3.5 mph - 0.01 in   Overcast
5:54 AM 17.1 °F 11.7 °F 12.0 °F 81% 29.98 in 10.0 mi North 3.5 mph - N/A   Overcast
6:54 AM 17.1 °F - 12.9 °F 84% 29.98 in 8.0 mi Calm Calm - 0.00 in Snow Light Snow
7:54 AM 15.1 °F 9.4 °F 12.0 °F 88% 29.98 in 1.8 mi NNW 3.5 mph - 0.01 in Snow Light Snow
8:26 AM 16.0 °F - 12.0 °F 84% 29.95 in 1.5 mi Calm Calm - 0.00 in Snow Light Snow
8:31 AM 16.0 °F 10.4 °F 12.0 °F 84% 29.95 in 3.0 mi North 3.5 mph - 0.00 in Snow Light Snow
8:54 AM 16.0 °F 10.4 °F 12.0 °F 84% 29.99 in 9.0 mi North 3.5 mph - 0.00 in   Overcast
9:10 AM 15.1 °F 9.4 °F 10.9 °F 84% 29.94 in 10.0 mi North 3.5 mph - N/A   Overcast
9:54 AM 17.1 °F - 10.9 °F 77% 29.99 in 9.0 mi Calm Calm - N/A   Overcast
10:54 AM 19.9 °F - 12.9 °F 74% 29.95 in 10.0 mi Calm Calm - N/A   Overcast
11:54 AM 28.0 °F 21.7 °F 19.9 °F 72% 29.93 in 10.0 mi East 5.8 mph - N/A   Overcast
12:27 PM 28.0 °F 20.8 °F 19.9 °F 72% 29.88 in 10.0 mi East 6.9 mph - N/A   Overcast
12:51 PM 28.4 °F 19.1 °F 19.4 °F 69% 29.88 in 10.0 mi East 10.4 mph - N/A   Overcast
12:54 PM 28.0 °F 18.1 °F 19.0 °F 69% 29.91 in 10.0 mi East 11.5 mph - N/A   Overcast
1:54 PM 26.1 °F 16.2 °F 19.0 °F 75% 29.90 in 10.0 mi ESE 10.4 mph 23.0 mph N/A   Overcast
2:54 PM 26.1 °F 16.8 °F 18.0 °F 71% 29.88 in 10.0 mi ESE 9.2 mph 17.3 mph 0.00 in   Overcast
3:25 PM 26.1 °F 15.0 °F 18.0 °F 71% 29.85 in 2.5 mi East 12.7 mph 17.3 mph 0.00 in Snow Light Snow
3:46 PM 25.0 °F 15.5 °F 18.0 °F 75% 29.86 in 1.5 mi East 9.2 mph - 0.00 in Snow Light Snow
3:54 PM 25.0 °F 17.1 °F 18.0 °F 75% 29.91 in 1.0 mi East 6.9 mph - 0.00 in Snow Light Snow
4:03 PM 24.1 °F 14.4 °F 19.0 °F 81% 29.87 in 0.8 mi East 9.2 mph - 0.00 in Snow Light Snow
4:54 PM 23.0 °F 13.1 °F 18.0 °F 81% 29.91 in 0.5 mi East 9.2 mph - 0.02 in Snow Snow
5:05 PM 23.0 °F 13.1 °F 18.0 °F 81% 29.88 in 0.8 mi East 9.2 mph 17.3 mph 0.01 in Snow Light Snow
5:25 PM 21.9 °F 10.4 °F 17.1 °F 82% 29.89 in 1.2 mi East 11.5 mph - 0.02 in Snow Light Snow
5:54 PM 21.9 °F 11.0 °F 17.1 °F 82% 29.94 in 1.2 mi East 10.4 mph - 0.03 in Snow Light Snow
6:34 PM 21.9 °F 9.8 °F 16.0 °F 78% 29.92 in 1.2 mi East 12.7 mph 20.7 mph 0.01 in Snow Light Snow
6:44 PM 21.9 °F 10.4 °F 16.0 °F 78% 29.92 in 0.8 mi East 11.5 mph 19.6 mph 0.01 in Snow Light Snow
6:54 PM 21.0 °F 9.3 °F 17.1 °F 85% 29.96 in 0.8 mi East 11.5 mph 19.6 mph 0.01 in Snow Light Snow
7:34 PM 21.0 °F 8.6 °F 16.0 °F 81% 29.92 in 1.0 mi ESE 12.7 mph 20.7 mph 0.02 in Snow Light Snow
7:54 PM 21.9 °F 8.7 °F 15.1 °F 75% 29.97 in 1.5 mi ESE 15.0 mph 23.0 mph 0.02 in Snow Light Snow
8:54 PM 21.0 °F 7.6 °F 15.1 °F 78% 29.99 in 1.2 mi East 15.0 mph 21.9 mph 0.00 in Snow Light Snow
9:43 PM 19.9 °F 8.6 °F 15.1 °F 81% 29.96 in 0.8 mi East 10.4 mph 21.9 mph 0.01 in Snow Light Snow
9:54 PM 19.9 °F 6.7 °F 15.1 °F 81% 30.00 in 0.8 mi ESE 13.8 mph - 0.01 in Snow Light Snow
10:05 PM 21.0 °F 7.6 °F 15.1 °F 78% 29.96 in 1.0 mi ESE 15.0 mph 24.2 mph 0.00 in Snow Light Snow
10:41 PM 21.0 °F 8.1 °F 14.0 °F 74% 29.96 in 2.5 mi East 13.8 mph 23.0 mph 0.00 in Snow Light Snow
10:49 PM 21.2 °F 8.3 °F 12.2 °F 68% 29.96 in 6.0 mi ESE 13.8 mph 23.0 mph 0.00 in Snow Light Snow
10:54 PM 21.9 °F 10.4 °F 12.0 °F 66% 30.00 in 8.0 mi ESE 11.5 mph 23.0 mph 0.00 in Snow Light Snow
11:31 PM 21.0 °F 9.9 °F 12.9 °F 71% 29.96 in 2.5 mi East 10.4 mph 19.6 mph 0.01 in Snow Light Snow
11:54 PM 21.0 °F 8.6 °F 12.9 °F 71% 30.00 in 3.0 mi East 12.7 mph 26.5 mph 0.01 in Snow Light Snow